| time (UTC) | temp F | wind direction | speed knots | gust knots | rain 1hr in | rain 24hr in | rain mn in | humidity % | barometer mb |
| 20260505193033 | 83 | 195 | 8.7 | 15.6 | 0.00 | 0.00 | 0.00 | 69 | 1005.3 |
| 20260505191520 | 83 | 205 | 7.8 | 16.5 | 0.00 | 0.00 | 0.00 | 69 | 1005.4 |
| 20260505190007 | 83 | 212 | 7.0 | 15.6 | 0.00 | 0.00 | 0.00 | 69 | 1005.5 |
| 20260505184508 | 82 | 150 | 7.8 | 15.6 | 0.00 | 0.00 | 0.00 | 69 | 1005.7 |
| 20260505183014 | 82 | 175 | 8.7 | 15.6 | 0.00 | 0.00 | 0.00 | 70 | 1005.9 |
| 20260505181518 | 81 | 223 | 7.0 | 13.0 | 0.00 | 0.00 | 0.00 | 70 | 1006.0 |
| 20260505180037 | 80 | 211 | 7.0 | 13.0 | 0.00 | 0.00 | 0.00 | 70 | 1006.0 |
| 20260505174515 | 79 | 178 | 8.7 | 20.0 | 0.00 | 0.00 | 0.00 | 71 | 1005.9 |
| 20260505173012 | 80 | 200 | 10.4 | 19.1 | 0.00 | 0.00 | 0.00 | 70 | 1005.8 |
| 20260505171516 | 79 | 178 | 7.8 | 15.6 | 0.00 | 0.00 | 0.00 | 71 | 1005.9 |
| 20260505170026 | 78 | 209 | 12.2 | 20.9 | 0.00 | 0.00 | 0.00 | 71 | 1005.9 |
| 20260505164523 | 77 | 214 | 11.3 | 23.5 | 0.00 | 0.00 | 0.00 | 71 | 1005.7 |
| 20260505163008 | 77 | 213 | 7.8 | 21.7 | 0.00 | 0.00 | 0.00 | 71 | 1005.8 |
| 20260505161512 | 77 | 191 | 9.6 | 20.9 | 0.00 | 0.00 | 0.00 | 71 | 1006.0 |
| 20260505153034 | 75 | 191 | 10.4 | 17.4 | 0.00 | 0.00 | 0.00 | 72 | 1005.9 |
| 20260505151508 | 75 | 177 | 10.4 | 20.0 | 0.00 | 0.00 | 0.00 | 72 | 1006.0 |
| 20260505124511 | 70 | 180 | 8.7 | 17.4 | 0.00 | 0.00 | 0.00 | 78 | 1005.0 |
| 20260505123011 | 70 | 175 | 8.7 | 15.6 | 0.00 | 0.00 | 0.00 | 78 | 1004.9 |
| 20260505121514 | 70 | 188 | 9.6 | 18.2 | 0.00 | 0.00 | 0.00 | 78 | 1004.6 |
| 20260505120015 | 70 | 207 | 8.7 | 17.4 | 0.00 | 0.00 | 0.00 | 78 | 1004.7 |
| 20260505114512 | 70 | 186 | 9.6 | 20.0 | 0.00 | 0.00 | 0.00 | 77 | 1004.6 |
| 20260505113020 | 70 | 184 | 11.3 | 18.2 | 0.00 | 0.00 | 0.00 | 78 | 1004.6 |
| 20260505111514 | 70 | 189 | 9.6 | 17.4 | 0.00 | 0.00 | 0.00 | 77 | 1004.6 |
| 20260505101518 | 69 | 195 | 9.6 | 14.8 | 0.00 | 0.00 | 0.00 | 78 | 1004.8 |
| 20260505100021 | 69 | 215 | 8.7 | 14.8 | 0.00 | 0.00 | 0.00 | 78 | 1004.7 |
| 20260505094519 | 69 | 186 | 9.6 | 17.4 | 0.00 | 0.00 | 0.00 | 78 | 1004.9 |
| 20260505093026 | 70 | 177 | 7.8 | 15.6 | 0.00 | 0.00 | 0.00 | 78 | 1005.1 |
| 20260505091514 | 70 | 178 | 9.6 | 16.5 | 0.00 | 0.00 | 0.00 | 78 | 1005.1 |
| 20260505090020 | 70 | 184 | 7.8 | 17.4 | 0.00 | 0.00 | 0.00 | 78 | 1005.0 |
| 20260505084521 | 70 | 169 | 8.7 | 19.1 | 0.00 | 0.00 | 0.00 | 78 | 1005.1 |
| 20260505083024 | 69 | 175 | 8.7 | 20.9 | 0.00 | 0.00 | 0.00 | 78 | 1005.0 |
| 20260505081531 | 69 | 168 | 7.0 | 16.5 | 0.00 | 0.00 | 0.00 | 78 | 1005.2 |
| 20260505080032 | 69 | 190 | 9.6 | 19.1 | 0.00 | 0.00 | 0.00 | 78 | 1005.3 |
| 20260505074522 | 69 | 207 | 8.7 | 19.1 | 0.00 | 0.00 | 0.00 | 78 | 1005.5 |
| 20260505073006 | 69 | 183 | 11.3 | 16.5 | 0.00 | 0.00 | 0.00 | 78 | 1005.8 |
| 20260505071508 | 69 | 172 | 8.7 | 18.2 | 0.00 | 0.00 | 0.00 | 78 | 1006.1 |
| 20260505070014 | 70 | 213 | 10.4 | 17.4 | 0.00 | 0.00 | 0.00 | 78 | 1006.2 |
| 20260505064523 | 70 | 178 | 10.4 | 20.9 | 0.00 | 0.00 | 0.00 | 78 | 1006.7 |
| 20260505063026 | 70 | 181 | 10.4 | 18.2 | 0.00 | 0.00 | 0.00 | 78 | 1006.7 |
| 20260505061506 | 70 | 200 | 7.8 | 17.4 | 0.00 | 0.00 | 0.00 | 78 | 1006.7 |
| 20260505060012 | 71 | 182 | 9.6 | 17.4 | 0.00 | 0.00 | 0.00 | 78 | 1006.6 |
| 20260505054518 | 71 | 204 | 7.8 | 15.6 | 0.00 | 0.00 | 0.00 | 78 | 1006.6 |
| 20260505053022 | 71 | 179 | 7.0 | 17.4 | 0.00 | 0.00 | 0.00 | 77 | 1006.9 |
| 20260505051524 | 71 | 193 | 8.7 | 14.8 | 0.00 | 0.00 | 0.00 | 77 | 1007.0 |
| 20260505041531 | 72 | 173 | 6.1 | 11.3 | 0.00 | 0.00 | 0.00 | 76 | 1007.1 |
| 20260505040028 | 72 | 172 | 6.1 | 12.2 | 0.00 | 0.00 | 0.00 | 76 | 1007.1 |
| 20260505034509 | 72 | 178 | 7.0 | 13.9 | 0.00 | 0.00 | 0.00 | 75 | 1006.9 |
| 20260505033019 | 72 | 181 | 7.0 | 13.9 | 0.00 | 0.00 | 0.00 | 75 | 1007.0 |
| 20260505031522 | 72 | 188 | 7.8 | 13.9 | 0.00 | 0.00 | 0.00 | 75 | 1007.1 |
| 20260505030026 | 72 | 165 | 6.1 | 11.3 | 0.00 | 0.00 | 0.00 | 75 | 1007.1 |
| 20260505024540 | 72 | 175 | 5.2 | 13.9 | 0.00 | 0.00 | 0.00 | 75 | 1006.9 |
| 20260505023027 | 73 | 162 | 5.2 | 12.2 | 0.00 | 0.00 | 0.00 | 74 | 1006.9 |
| 20260505021520 | 73 | 177 | 5.2 | 11.3 | 0.00 | 0.00 | 0.00 | 74 | 1006.9 |
| 20260505020024 | 73 | 184 | 2.6 | 10.4 | 0.00 | 0.00 | 0.00 | 73 | 1006.7 |
| 20260505014536 | 74 | 171 | 4.3 | 13.0 | 0.00 | 0.00 | 0.00 | 73 | 1006.8 |
| 20260505013031 | 74 | 65 | 3.5 | 10.4 | 0.00 | 0.00 | 0.00 | 72 | 1006.7 |
| 20260505011533 | 74 | 166 | 5.2 | 12.2 | 0.00 | 0.00 | 0.00 | 72 | 1006.6 |
| 20260505010020 | 75 | 155 | 6.1 | 13.9 | 0.00 | 0.00 | 0.00 | 71 | 1006.6 |
| 20260505004524 | 75 | 172 | 7.0 | 16.5 | 0.00 | 0.00 | 0.00 | 70 | 1006.8 |
| 20260505003026 | 76 | 164 | 8.7 | 16.5 | 0.00 | 0.00 | 0.00 | 69 | 1006.7 |
| 20260505001515 | 76 | 201 | 8.7 | 13.9 | 0.00 | 0.00 | 0.00 | 69 | 1007.0 |
| 20260505000028 | 76 | 178 | 9.6 | 16.5 | 0.00 | 0.00 | 0.00 | 68 | 1007.0 |
| 20260504234522 | 77 | 192 | 9.6 | 23.5 | 0.00 | 0.00 | 0.00 | 67 | 1007.0 |
| 20260504233028 | 77 | 190 | 9.6 | 20.0 | 0.00 | 0.00 | 0.00 | 68 | 1007.2 |
| 20260504231535 | 77 | 182 | 10.4 | 24.3 | 0.00 | 0.00 | 0.00 | 67 | 1007.2 |
| 20260504230017 | 77 | 170 | 9.6 | 19.1 | 0.00 | 0.00 | 0.00 | 67 | 1007.4 |
| 20260504224522 | 78 | 193 | 11.3 | 21.7 | 0.00 | 0.00 | 0.00 | 65 | 1007.8 |
| 20260504223022 | 78 | 152 | 12.2 | 20.0 | 0.00 | 0.00 | 0.00 | 66 | 1007.7 |
| 20260504221524 | 78 | 195 | 11.3 | 20.9 | 0.00 | 0.00 | 0.00 | 66 | 1007.6 |
| 20260504220034 | 78 | 179 | 10.4 | 20.9 | 0.00 | 0.00 | 0.00 | 66 | 1007.9 |
| 20260504214516 | 79 | 182 | 10.4 | 20.9 | 0.00 | 0.00 | 0.00 | 65 | 1008.0 |
| 20260504213020 | 79 | 147 | 10.4 | 20.9 | 0.00 | 0.00 | 0.00 | 64 | 1008.4 |
| 20260504211528 | 79 | 171 | 10.4 | 21.7 | 0.00 | 0.00 | 0.00 | 65 | 1008.5 |
| 20260504210039 | 80 | 178 | 10.4 | 18.2 | 0.00 | 0.00 | 0.00 | 65 | 1008.8 |
| 20260504204528 | 79 | 174 | 10.4 | 26.1 | 0.00 | 0.00 | 0.00 | 63 | 1009.0 |
| 20260504203025 | 79 | 171 | 11.3 | 21.7 | 0.00 | 0.00 | 0.00 | 64 | 1009.5 |
| 20260504201522 | 79 | 187 | 10.4 | 22.6 | 0.00 | 0.00 | 0.00 | 64 | 1009.8 |
| 20260504200026 | 78 | 159 | 11.3 | 22.6 | 0.00 | 0.00 | 0.00 | 64 | 1010.2 |
| 20260504194539 | 78 | 194 | 10.4 | 20.0 | 0.00 | 0.00 | 0.00 | 65 | 1010.4 |